Date,TemperatureHighF,TemperatureAvgF,TemperatureLowF,DewpointHighF,DewpointAvgF,DewpointLowF,HumidityHigh,HumidityAvg,HumidityLow,PressureMaxIn,PressureMinIn,WindSpeedMaxMPH,WindSpeedAvgMPH,GustSpeedMaxMPH,PrecipitationSumIn
2013-1-1,37.9,34.1,25.0,29.8,26.8,16.5,79,74,66,29.99,29.81,15,4,17,0.00
2013-1-2,29.4,24.7,20.2,17.5,15.4,13.6,77,67,58,30.17,29.94,13,4,16,0.00
2013-1-3,29.7,25.1,19.5,20.1,16.2,13.6,78,69,57,30.17,30.06,10,2,12,0.00
2013-1-4,34.7,31.3,28.3,23.0,21.7,19.6,71,67,61,30.08,29.96,16,5,21,0.00
2013-1-5,37.7,31.7,27.7,24.4,21.7,19.2,77,66,57,30.30,30.02,16,4,18,0.00
2013-1-6,43.2,36.1,29.3,31.7,28.0,22.8,94,74,55,30.19,29.96,12,2,15,0.01
2013-1-7,42.3,37.2,31.1,31.6,27.8,25.0,78,69,54,30.37,30.04,12,3,14,0.00
2013-1-8,45.3,36.4,28.9,33.2,28.8,23.7,83,74,59,30.37,30.31,11,1,13,0.00
2013-1-9,45.5,40.0,34.3,38.0,34.1,29.8,86,79,72,30.35,30.12,9,2,13,0.00
2013-1-10,45.9,40.3,36.3,33.5,27.9,26.1,74,61,51,30.49,30.24,12,4,17,0.00
2013-1-11,42.2,38.5,32.9,41.1,33.1,25.4,96,81,66,30.48,30.04,10,2,10,0.56
2013-1-12,46.8,42.1,39.8,46.0,41.2,39.0,97,97,96,30.13,30.04,6,1,6,0.01
2013-1-13,47.0,43.7,40.5,46.5,43.1,39.7,98,98,97,30.10,29.95,8,2,8,0.01
2013-1-14,50.9,47.4,37.8,50.4,43.6,31.9,100,88,57,30.24,29.87,11,3,13,0.13
2013-1-15,37.7,34.2,31.5,35.6,29.7,27.2,93,83,76,30.30,30.15,9,3,11,0.17
2013-1-16,34.2,31.9,30.8,33.3,30.7,29.2,100,95,92,30.15,29.76,7,1,9,0.72
2013-1-17,38.6,36.1,33.4,34.6,29.8,27.8,96,78,68,30.06,29.89,13,4,16,0.02
2013-1-18,33.4,26.9,23.6,28.8,16.1,9.4,87,64,47,30.44,29.96,20,4,23,0.00
2013-1-19,50.5,36.8,24.4,30.5,25.3,14.3,81,64,40,30.36,29.88,13,2,15,0.00
2013-1-20,51.2,39.1,26.4,32.3,23.8,11.8,77,56,30,30.01,29.69,25,6,25,0.00
2013-1-21,28.5,24.8,19.8,19.5,13.3,9.6,79,61,52,30.05,29.83,15,2,16,0.00
2013-1-22,21.7,14.8,9.6,11.8,0.1,-4.6,65,52,40,30.22,29.83,27,8,27,0.00
2013-1-23,16.3,11.2,8.0,5.3,0.2,-3.9,79,61,49,30.25,30.14,17,4,22,0.00
2013-1-24,21.5,15.1,9.5,6.4,3.0,-1.2,82,60,38,30.42,30.09,19,4,21,0.00
2013-1-25,19.1,13.6,10.3,13.0,5.1,-1.3,90,69,51,30.42,30.04,10,2,14,0.00
2013-1-26,23.5,16.7,9.8,11.4,9.1,6.1,90,73,54,30.37,30.03,15,3,16,0.00
2013-1-27,31.1,22.6,14.8,18.1,12.1,6.2,74,64,53,30.53,30.37,11,2,13,0.00
2013-1-28,33.7,29.1,24.0,32.6,25.6,15.1,100,87,63,30.47,29.99,8,1,9,0.11
2013-1-29,47.4,42.5,33.7,45.1,40.8,32.7,97,93,89,30.11,29.98,11,3,13,0.11
2013-1-30,63.5,51.7,42.4,59.3,50.4,41.4,99,95,84,29.99,29.27,13,3,17,0.48
2013-1-31,60.4,40.1,25.4,58.6,30.3,11.9,98,69,47,29.78,29.02,29,9,32,1.03
2013-2-1,27.1,24.0,18.2,17.0,10.1,5.2,75,55,41,30.24,29.76,22,6,26,0.00
2013-2-2,24.7,19.6,13.5,19.6,10.3,4.5,92,68,46,30.27,30.00,13,3,15,0.00
2013-2-3,26.9,23.1,18.2,22.6,19.7,16.1,94,87,71,30.00,29.77,13,1,17,0.03
2013-2-4,26.9,22.9,18.4,20.8,12.1,9.5,86,63,51,29.99,29.82,19,5,21,0.00
2013-2-5,29.6,27.0,24.2,27.1,24.3,20.8,94,90,86,29.92,29.84,5,1,5,0.00
2013-2-6,35.7,30.0,26.0,26.9,22.7,13.8,95,75,58,30.31,29.89,17,4,19,0.02
2013-2-7,31.2,26.8,21.7,22.2,15.7,11.1,75,63,54,30.44,30.24,10,2,11,0.00
2013-2-8,32.7,31.1,29.1,31.2,28.7,22.2,96,91,75,30.24,29.66,18,6,20,0.12
2013-2-9,30.5,24.8,18.7,29.5,16.8,9.4,96,73,51,30.33,29.74,25,9,25,0.01
2013-2-10,37.4,25.5,13.5,19.1,13.0,8.5,80,60,38,30.45,30.27,11,3,11,0.02
2013-2-11,46.0,36.9,29.6,45.2,34.6,18.5,97,92,61,30.27,29.63,12,2,14,0.24
2013-2-12,41.3,37.5,30.8,36.7,26.2,22.9,88,64,55,29.94,29.72,21,7,27,0.00
2013-2-13,40.5,33.3,27.6,30.2,26.4,22.0,95,76,61,29.92,29.63,8,1,8,0.00
2013-2-14,42.0,34.7,28.7,32.0,28.9,24.4,96,80,58,29.97,29.68,9,1,10,0.15
2013-2-15,52.6,40.1,31.7,37.0,31.1,26.9,94,72,49,29.98,29.88,16,2,16,0.05
2013-2-16,32.8,30.6,26.5,30.8,24.8,11.7,96,80,53,29.94,29.73,16,3,17,0.06
2013-2-17,26.8,23.5,17.0,13.6,8.0,2.2,61,51,43,30.04,29.70,30,10,30,0.00
2013-2-18,32.7,23.6,15.6,13.9,8.6,2.8,61,53,42,30.28,30.03,20,5,25,0.00
2013-2-19,41.1,34.4,27.1,38.9,28.0,13.4,95,78,55,30.16,29.67,16,4,22,0.21
2013-2-20,33.2,26.0,21.6,25.0,14.1,10.3,72,60,51,30.00,29.73,25,9,27,0.00
2013-2-21,32.1,25.5,21.0,17.4,14.3,10.6,73,62,53,30.27,29.99,22,8,24,0.00
2013-2-22,34.4,27.7,19.3,29.5,20.7,13.6,92,75,65,30.37,30.20,12,4,14,0.00
2013-2-23,41.3,36.5,31.1,40.5,35.5,28.6,97,96,88,30.22,29.77,12,4,13,0.06
2013-2-24,41.7,35.1,29.1,38.7,29.6,20.3,97,81,63,29.98,29.74,19,5,20,0.00
2013-2-25,41.1,34.0,27.6,29.8,24.9,20.4,78,69,55,30.20,29.98,15,3,15,0.00
2013-2-26,41.6,35.4,31.3,32.9,29.4,24.3,94,79,67,30.21,29.75,17,5,21,0.30
2013-2-27,46.1,41.2,34.5,43.4,37.8,33.0,100,88,76,29.76,29.47,23,5,23,0.17
2013-2-28,43.4,38.8,32.6,35.6,31.8,26.7,89,76,54,29.62,29.53,12,3,14,0.00
2013-3-1,40.7,35.3,30.9,32.6,28.4,24.5,90,76,58,29.78,29.60,16,5,19,0.00
2013-3-2,35.9,31.4,27.7,25.6,22.8,19.7,77,70,63,29.78,29.69,15,6,16,0.00
2013-3-3,33.3,28.7,23.3,21.2,18.8,16.3,76,66,57,29.77,29.68,16,7,19,0.00
2013-3-4,37.1,30.7,26.0,22.7,19.4,15.8,72,63,53,29.92,29.77,22,8,23,0.00
2013-3-5,44.0,35.1,28.4,29.0,25.0,21.6,79,67,51,30.00,29.89,13,4,17,0.00
2013-3-6,39.0,35.6,32.1,33.8,30.7,26.6,90,82,71,29.91,29.73,27,10,30,0.03
2013-3-7,43.1,36.8,33.2,29.2,27.0,24.7,83,68,54,30.05,29.89,23,8,26,0.00
2013-3-8,41.1,32.2,27.6,30.7,26.6,23.8,92,80,64,30.25,30.00,21,7,21,0.02
2013-3-9,57.9,43.0,29.6,27.9,21.2,11.0,77,46,21,30.27,30.16,14,4,15,0.00
2013-3-10,53.7,43.2,33.5,36.2,28.0,11.9,89,58,28,30.31,30.20,10,4,11,0.00
2013-3-11,56.4,44.7,34.6,47.0,40.0,31.8,100,85,56,30.25,30.00,14,4,15,0.00
2013-3-12,54.7,49.4,39.3,53.6,46.7,32.7,97,91,78,30.00,29.63,19,7,23,1.04
2013-3-13,45.2,38.1,31.4,34.6,28.8,23.1,90,69,49,29.90,29.78,19,5,19,0.01
2013-3-14,37.6,31.8,25.9,23.1,16.5,11.5,83,54,37,29.96,29.86,27,8,28,0.00
2013-3-15,48.2,36.8,24.7,32.1,21.9,12.2,65,55,46,29.98,29.69,18,5,19,0.00
2013-3-16,43.5,33.6,30.0,31.4,27.6,22.7,94,80,62,29.89,29.71,16,3,16,0.01
2013-3-17,34.9,30.2,25.8,28.7,21.7,17.7,94,72,56,30.26,29.88,13,3,14,0.14
2013-3-18,34.6,29.4,25.4,31.5,21.9,12.3,95,74,57,30.32,29.88,13,5,13,0.02
2013-3-19,47.1,37.2,32.5,37.6,30.3,19.1,96,79,42,29.88,29.66,23,6,23,0.50
2013-3-20,43.3,35.4,28.7,23.5,19.6,17.6,65,53,38,29.87,29.74,21,5,22,0.00
2013-3-21,34.8,29.9,25.7,26.7,18.9,11.5,93,65,41,29.79,29.62,16,5,18,0.01
2013-3-22,38.2,30.6,24.3,22.9,19.3,12.8,78,63,50,29.89,29.73,20,6,25,0.00
2013-3-23,44.2,35.2,28.5,24.1,20.7,18.4,68,56,42,29.92,29.83,20,7,21,0.00
2013-3-24,43.4,36.1,27.4,26.5,21.3,17.9,69,55,42,29.93,29.64,13,3,13,0.00
2013-3-25,34.9,33.1,31.3,32.8,29.4,25.5,100,87,69,29.65,29.43,20,4,20,0.20
2013-3-26,47.4,38.2,32.2,33.8,31.0,26.1,96,78,46,29.86,29.59,14,4,16,0.01
2013-3-27,47.6,38.9,31.8,32.7,29.5,25.0,87,70,46,29.99,29.86,19,4,25,0.00
2013-3-28,44.9,39.1,31.8,31.5,28.8,26.3,84,67,51,30.11,29.95,17,5,17,0.00
2013-3-29,49.2,42.3,33.9,31.5,29.0,26.2,74,60,47,30.13,30.05,16,4,16,0.00
2013-3-30,54.6,45.0,34.4,32.7,27.2,23.7,75,52,31,30.15,30.04,12,2,16,0.00
2013-3-31,53.6,44.8,37.6,44.6,35.6,24.3,96,72,45,30.08,29.66,17,4,17,0.24
2013-4-1,58.7,45.6,33.6,45.5,35.8,15.5,100,72,39,29.89,29.63,22,5,23,0.00
2013-4-2,40.9,34.5,28.7,17.6,14.4,12.1,58,44,33,30.08,29.89,24,6,24,0.00
2013-4-3,43.2,35.2,28.8,19.3,14.5,10.3,52,43,29,30.28,30.07,20,6,23,0.00
2013-4-4,50.4,37.6,25.6,27.9,19.9,12.1,66,49,34,30.37,30.04,12,2,15,0.00
2013-4-5,59.7,46.4,35.9,32.8,26.6,18.1,82,50,24,30.05,29.71,17,4,21,0.00
2013-4-6,50.0,39.8,30.2,26.8,19.9,15.4,63,46,27,30.26,29.97,13,4,16,0.00
2013-4-7,61.3,48.2,35.9,43.6,35.4,26.5,78,62,48,30.25,29.94,11,4,16,0.00
2013-4-8,73.7,61.7,50.6,51.2,46.6,42.6,76,59,40,30.03,29.90,9,2,10,0.00
2013-4-9,79.5,69.9,59.2,54.3,50.7,44.8,74,53,30,29.95,29.83,25,3,25,0.00
2013-4-10,84.1,70.3,59.6,60.3,56.3,52.6,96,63,42,29.87,29.70,21,2,27,0.75
2013-4-11,60.5,56.3,45.9,59.0,53.5,42.5,97,90,78,29.91,29.71,15,4,16,0.00
2013-4-12,45.8,42.0,40.2,42.7,40.5,39.0,97,94,87,29.89,29.64,21,7,22,0.53
2013-4-13,56.6,47.7,39.3,41.3,37.7,33.4,97,71,47,29.93,29.71,15,3,20,0.00
2013-4-14,58.9,50.2,41.2,36.5,33.8,27.3,78,54,39,30.12,29.92,17,3,18,0.00
2013-4-15,58.4,49.3,42.6,45.3,37.3,31.3,78,63,54,30.30,30.12,12,5,13,0.00
2013-4-16,68.4,56.9,44.2,57.7,49.9,41.0,91,78,64,30.29,30.07,13,3,15,0.00
2013-4-17,69.2,59.6,52.7,55.5,46.7,33.8,93,66,29,30.22,30.05,13,3,15,0.01
2013-4-18,59.3,53.6,49.1,54.8,48.5,39.8,96,83,69,30.24,30.01,15,5,15,0.09
2013-4-19,74.7,63.5,51.1,65.8,60.0,48.6,99,89,71,30.01,29.55,21,4,23,1.22
2013-4-20,54.1,47.7,41.6,48.4,33.7,25.2,93,60,38,30.27,29.66,22,5,24,0.12
2013-4-21,51.2,41.4,31.7,31.3,25.8,20.6,72,54,39,30.57,30.27,14,4,17,0.00
2013-4-22,50.6,42.9,35.7,37.5,32.8,27.9,82,68,51,30.58,30.41,15,4,18,0.00
2013-4-23,47.2,42.7,37.9,42.4,37.6,32.5,92,82,75,30.41,30.09,13,3,15,0.00
2013-4-24,68.8,55.3,40.9,56.9,48.1,37.1,89,77,63,30.10,29.76,14,2,14,0.00
2013-4-25,61.0,51.1,40.2,56.2,33.3,25.8,85,52,28,30.23,29.83,26,4,26,0.00
2013-4-26,60.7,52.4,43.9,38.8,31.3,25.0,65,46,29,30.38,30.23,13,2,14,0.00
2013-4-27,66.3,55.2,42.5,42.5,34.1,25.5,64,46,33,30.39,30.23,7,2,9,0.00
2013-4-28,67.5,57.5,48.3,45.6,39.0,32.4,72,51,35,30.25,30.13,10,2,12,0.00
2013-4-29,53.3,51.4,48.4,52.5,49.1,41.9,97,92,70,30.16,30.07,13,4,13,0.33
2013-4-30,65.3,55.3,48.2,52.6,45.0,30.7,97,72,38,30.27,30.12,11,4,11,0.03
2013-5-1,65.8,54.3,43.6,44.1,36.6,29.4,76,52,30,30.42,30.27,13,3,13,0.00
2013-5-2,69.0,56.4,42.0,50.2,43.1,38.5,92,64,39,30.41,30.27,8,1,9,0.00
2013-5-3,61.8,54.0,44.9,43.6,40.2,36.5,85,61,41,30.37,30.28,12,3,13,0.00
2013-5-4,66.5,53.3,41.0,48.7,42.7,38.3,98,70,43,30.31,30.15,13,2,13,0.00
2013-5-5,62.5,50.2,39.9,46.4,41.2,37.2,92,73,50,30.23,30.13,11,2,12,0.00
2013-5-6,66.3,52.7,41.0,54.9,47.8,38.7,96,84,65,30.20,30.08,10,2,11,0.00
2013-5-7,69.0,58.5,49.6,60.6,54.7,48.4,97,88,69,30.10,30.00,10,3,11,0.06
2013-5-8,67.8,59.9,55.9,62.4,57.2,53.0,97,91,76,30.00,29.86,16,2,16,0.32
2013-5-9,68.5,59.9,53.7,57.5,54.9,52.6,97,85,63,29.92,29.85,10,1,11,0.07
2013-5-10,79.3,67.3,56.0,61.2,57.4,54.0,95,73,45,29.96,29.84,21,1,21,0.42
2013-5-11,70.4,62.7,58.7,64.7,60.5,55.6,98,93,80,29.87,29.66,12,1,13,0.70
2013-5-12,60.5,55.4,44.5,55.7,41.3,26.8,91,62,34,29.92,29.65,21,4,22,0.02
2013-5-13,51.7,45.4,39.1,34.8,30.3,23.9,74,57,36,30.09,29.92,17,3,19,0.00
2013-5-14,58.6,47.3,34.0,33.1,30.2,26.5,84,55,31,30.13,30.00,13,2,15,0.00
2013-5-15,70.5,59.2,48.1,59.6,49.1,31.6,83,70,50,30.03,29.66,12,2,12,0.00
2013-5-16,78.3,67.9,59.9,65.4,58.2,46.5,93,73,46,29.81,29.67,10,1,10,0.07
2013-5-17,70.8,62.9,53.7,48.1,43.5,38.7,65,50,34,30.14,29.81,13,2,13,0.00
2013-5-18,63.9,58.2,54.5,54.8,50.6,45.8,94,76,65,30.23,30.14,10,2,10,0.00
2013-5-19,59.4,56.7,54.2,58.5,55.8,53.3,98,97,94,30.22,30.10,8,2,9,0.13
2013-5-20,76.9,65.7,55.8,68.7,62.5,55.2,99,90,74,30.12,29.92,8,1,8,0.01
2013-5-21,81.8,72.9,64.4,72.9,67.7,62.9,98,85,68,29.93,29.80,10,1,11,0.00
2013-5-22,85.5,74.1,66.1,74.7,68.9,64.9,98,85,52,29.86,29.76,9,1,10,0.00
2013-5-23,78.5,69.9,61.0,70.2,67.1,59.5,96,91,71,29.83,29.70,12,1,12,0.94
2013-5-24,61.3,51.9,43.3,60.4,48.6,37.6,99,89,73,29.97,29.65,22,4,24,0.17
2013-5-25,58.9,50.3,43.5,40.7,37.3,32.5,86,63,42,30.02,29.92,23,5,23,0.01
2013-5-26,66.6,55.5,44.8,43.2,37.1,34.2,71,51,31,30.17,29.98,20,4,20,0.00
2013-5-27,69.4,59.4,45.8,46.5,39.6,32.8,64,49,35,30.22,30.10,11,1,13,0.00
2013-5-28,62.1,58.1,53.8,61.2,52.8,43.3,97,84,61,30.17,30.06,7,0,8,0.31
2013-5-29,86.0,70.8,57.1,71.7,63.4,56.3,100,80,49,30.07,29.98,12,1,14,0.01
2013-5-30,88.5,79.2,69.0,70.2,66.4,63.0,88,67,44,30.09,30.02,10,1,10,0.00
2013-5-31,89.9,79.9,70.2,71.8,66.1,58.3,86,65,37,30.08,29.95,11,1,11,0.00
2013-6-1,89.0,78.1,67.1,73.6,68.4,64.6,92,73,53,29.97,29.84,10,1,12,0.00
2013-6-2,83.0,76.7,70.6,72.9,68.7,65.3,89,77,64,29.85,29.73,13,2,17,0.01
2013-6-3,77.5,70.5,64.9,68.0,64.5,55.1,97,82,63,29.84,29.75,10,2,13,0.27
2013-6-4,73.4,63.2,53.0,55.1,46.9,43.5,74,57,36,30.07,29.84,14,3,14,0.00
2013-6-5,74.5,63.7,52.6,54.6,47.1,38.8,78,56,40,30.16,30.03,10,2,11,0.00
2013-6-6,70.9,60.8,54.3,61.2,55.6,50.6,96,84,53,30.08,29.90,13,2,13,0.26
2013-6-7,62.7,60.7,58.3,62.6,59.9,57.1,100,97,96,29.90,29.56,15,4,20,2.79
2013-6-8,74.4,65.8,57.7,65.7,61.0,56.6,97,85,69,30.03,29.57,15,2,17,0.01
2013-6-9,80.0,69.7,57.7,64.5,59.6,54.8,91,71,51,30.13,30.03,9,1,10,0.00
2013-6-10,70.2,66.9,63.2,69.6,65.1,61.7,98,94,81,30.09,29.72,11,2,14,2.76
2013-6-11,77.3,70.8,65.2,68.8,65.2,60.3,98,83,69,29.72,29.63,17,3,19,0.03
2013-6-12,77.7,70.5,63.6,62.0,59.4,57.1,86,69,50,29.79,29.71,17,2,17,0.00
2013-6-13,72.8,64.6,57.1,69.0,60.6,55.5,97,87,72,29.78,29.36,14,4,16,0.65
2013-6-14,74.0,61.1,52.9,60.1,54.4,49.6,96,80,56,29.88,29.47,17,4,17,0.10
2013-6-15,77.3,68.0,57.7,60.9,56.3,52.7,85,68,45,29.99,29.88,15,1,15,0.00
2013-6-16,81.0,70.0,59.9,66.7,59.3,51.0,86,70,47,29.96,29.76,13,2,19,0.00
2013-6-17,83.6,73.8,65.4,69.9,65.8,62.6,92,77,57,29.88,29.79,10,1,11,0.00
2013-6-18,77.3,68.0,62.2,70.9,65.3,61.0,97,91,78,29.86,29.74,11,1,11,0.16
2013-6-19,75.9,65.1,56.4,61.0,54.6,49.5,97,71,45,30.11,29.83,15,3,15,0.00
2013-6-20,77.4,67.4,56.8,62.1,56.7,50.3,90,70,52,30.22,30.11,10,1,11,0.00
2013-6-21,80.8,69.9,58.8,62.2,55.3,47.3,75,60,45,30.25,30.18,8,1,8,0.00
2013-6-22,82.9,71.2,58.4,68.4,62.2,53.5,89,74,57,30.21,30.07,9,1,10,0.00
2013-6-23,83.8,74.3,64.3,73.4,68.2,61.9,94,82,64,30.15,30.00,10,1,10,0.00
2013-6-24,88.5,77.3,70.8,73.7,69.4,63.8,95,78,56,30.03,29.92,13,1,13,0.00
2013-6-25,87.7,76.8,67.4,74.8,68.1,63.7,89,75,54,29.95,29.79,12,1,18,0.00
2013-6-26,86.0,73.7,67.1,74.3,67.5,63.0,96,82,61,29.82,29.73,12,1,13,0.28
2013-6-27,84.4,74.6,67.9,74.1,70.6,67.0,98,88,67,29.77,29.49,12,1,12,0.64
2013-6-28,83.8,73.5,66.5,72.3,68.7,64.9,97,86,63,29.52,29.42,10,1,10,0.21
2013-6-29,83.8,74.5,66.4,70.4,66.1,62.7,97,77,51,29.65,29.43,8,1,10,0.01
2013-6-30,80.2,73.8,69.7,74.7,69.8,64.0,95,87,75,29.83,29.65,9,1,9,0.00
2013-7-1,75.6,72.7,67.9,73.4,71.2,66.9,98,95,89,29.96,29.81,11,1,15,2.29
2013-7-2,82.7,75.2,71.6,75.2,71.7,69.2,95,89,76,30.12,29.96,10,1,10,0.01
2013-7-3,83.5,75.6,69.6,75.4,71.7,67.9,96,88,74,30.19,30.11,10,1,11,0.00
2013-7-4,86.1,78.6,72.2,76.6,72.9,70.3,97,83,67,30.20,30.10,10,1,12,0.00
2013-7-5,88.0,79.9,71.9,76.1,72.7,70.1,96,80,58,30.17,30.05,10,1,13,0.00
2013-7-6,90.5,81.6,73.2,76.0,73.5,71.2,95,78,58,30.10,29.99,11,1,11,0.00
2013-7-7,89.7,79.3,69.1,77.0,72.5,67.9,96,81,60,30.03,29.90,23,1,23,0.27
2013-7-8,83.3,73.6,67.1,72.4,68.5,65.7,96,85,63,30.02,29.94,10,1,13,0.01
2013-7-9,84.1,75.8,69.5,74.8,70.5,66.5,92,84,70,30.03,29.95,10,1,10,0.01
2013-7-10,83.8,77.7,72.5,74.5,72.8,69.7,96,85,71,29.96,29.77,11,1,13,0.00
2013-7-11,81.2,75.7,72.0,74.0,69.9,62.5,94,83,68,29.87,29.75,8,1,11,0.01
2013-7-12,73.3,69.9,67.3,68.3,64.8,60.8,96,84,70,29.99,29.86,12,4,17,1.06
2013-7-13,83.8,74.0,67.2,76.3,71.2,66.0,98,91,74,30.24,29.99,9,1,15,0.43
2013-7-14,87.6,78.8,72.1,75.5,72.9,70.4,98,83,62,30.30,30.20,8,1,9,0.00
2013-7-15,90.8,81.3,72.1,76.7,73.3,68.8,93,78,60,30.22,30.09,8,1,10,0.00
2013-7-16,89.0,81.2,72.6,75.7,71.3,67.9,88,73,56,30.17,30.08,11,2,12,0.00
2013-7-17,91.8,82.5,74.4,73.6,70.7,68.0,81,68,49,30.15,30.02,9,2,11,0.00
2013-7-18,92.8,84.7,76.0,79.6,74.2,69.8,85,71,55,30.04,29.92,7,1,8,0.00
2013-7-19,93.3,84.5,77.7,80.1,76.9,71.0,93,79,59,29.94,29.75,10,1,12,0.01
2013-7-20,88.5,80.4,74.2,76.5,71.9,68.4,85,76,60,29.79,29.70,13,1,13,0.00
2013-7-21,85.1,76.9,70.6,74.4,70.6,68.2,94,82,63,29.89,29.78,9,1,9,0.00
2013-7-22,82.8,74.0,70.1,76.0,71.4,68.3,97,92,77,29.89,29.72,8,1,8,0.43
2013-7-23,82.7,74.8,69.0,76.9,70.6,68.1,98,88,67,29.72,29.54,13,1,22,1.37
2013-7-24,76.7,71.5,61.5,68.3,63.8,52.7,88,77,60,29.89,29.58,13,2,14,0.00
2013-7-25,68.3,62.2,56.2,60.5,56.1,51.3,90,80,72,30.00,29.88,12,4,12,0.00
2013-7-26,79.0,69.3,58.4,62.2,59.2,56.7,94,72,50,30.01,29.97,8,1,14,0.00
2013-7-27,81.8,72.2,62.5,70.1,63.9,58.0,95,76,60,30.00,29.87,8,1,9,0.00
2013-7-28,78.8,70.2,65.3,73.0,67.1,61.5,95,90,81,29.92,29.83,8,1,9,0.27
2013-7-29,77.6,70.1,63.5,65.8,60.6,55.1,97,74,49,30.08,29.90,11,1,12,0.05
2013-7-30,76.5,68.1,58.9,62.5,57.8,54.0,86,70,55,30.15,30.07,11,1,13,0.00
2013-7-31,80.0,71.2,60.9,66.2,61.1,55.4,87,71,53,30.11,29.98,5,0,6,0.00
2013-8-1,70.0,67.4,64.2,69.3,65.4,61.7,98,93,83,29.98,29.77,11,1,11,1.03
2013-8-2,80.5,72.2,64.1,68.2,64.6,59.0,98,79,57,29.89,29.77,9,1,11,0.01
2013-8-3,74.0,68.9,65.4,66.8,63.3,57.6,93,83,66,29.88,29.82,10,1,11,0.04
2013-8-4,75.5,67.9,60.4,63.4,59.0,54.3,96,75,50,29.95,29.82,14,2,16,0.01
2013-8-5,73.8,64.9,55.4,55.7,53.4,50.8,85,68,48,30.04,29.95,10,1,13,0.00
2013-8-6,75.4,66.6,58.9,65.1,58.4,52.1,90,76,59,30.06,29.99,8,0,9,0.00
2013-8-7,72.4,67.7,63.5,68.2,65.5,60.8,97,93,83,30.07,29.99,8,2,9,0.15
2013-8-8,83.7,74.4,67.3,75.7,70.7,66.4,98,89,72,30.01,29.92,11,1,11,0.06
2013-8-9,81.8,76.0,72.2,75.9,73.0,70.6,96,91,79,29.94,29.77,11,1,11,0.19
2013-8-10,80.5,73.6,66.6,72.3,66.4,62.5,96,79,59,30.00,29.83,9,1,10,0.01
2013-8-11,81.4,71.5,61.3,67.6,62.0,54.5,87,73,56,30.09,29.96,8,1,9,0.00
2013-8-12,81.4,72.9,67.9,68.3,66.0,62.4,96,80,57,29.98,29.87,10,1,11,0.00
2013-8-13,78.5,71.0,63.6,70.3,67.5,62.4,97,89,73,29.87,29.66,9,1,10,1.64
2013-8-14,70.0,63.1,54.8,65.3,53.4,47.7,90,71,57,30.03,29.73,12,2,18,0.00
2013-8-15,73.7,63.5,52.3,56.1,51.5,47.5,87,67,47,30.12,30.02,9,1,11,0.00
2013-8-16,76.9,67.1,56.7,60.2,54.6,50.1,81,65,44,30.15,30.08,7,0,7,0.00
2013-8-17,78.8,68.1,57.3,62.8,58.1,54.7,91,72,46,30.22,30.15,7,1,7,0.00
2013-8-18,71.3,66.0,62.7,64.0,60.1,56.1,93,82,69,30.20,30.10,9,1,9,0.02
2013-8-19,73.5,66.7,60.2,66.9,62.4,58.2,94,86,73,30.10,30.01,7,0,9,0.02
2013-8-20,83.4,73.1,63.1,70.8,65.9,61.9,97,80,57,30.10,30.02,8,0,9,0.01
2013-8-21,85.3,75.7,64.7,70.8,66.3,60.8,94,74,50,30.14,30.00,7,0,8,0.00
2013-8-22,79.1,73.5,68.4,74.4,70.5,66.0,97,91,74,30.02,29.84,9,0,12,0.82
2013-8-23,75.2,69.1,64.1,66.7,62.7,56.6,96,81,61,30.06,29.85,10,1,10,0.00
2013-8-24,76.3,67.0,58.1,58.1,54.7,48.8,82,66,43,30.30,30.06,11,3,12,0.01
2013-8-25,78.2,67.2,56.9,60.5,56.7,53.3,91,70,46,30.36,30.20,8,1,9,0.00
2013-8-26,82.3,70.9,62.0,68.5,62.2,55.4,86,75,60,30.21,29.89,11,1,12,0.02
2013-8-27,84.4,75.7,68.3,70.1,67.6,65.0,90,77,58,29.89,29.81,12,1,12,0.01
2013-8-28,75.0,70.8,68.1,70.4,68.5,66.7,97,92,78,29.85,29.78,7,0,7,1.17
2013-8-29,77.3,71.3,67.3,72.0,68.6,64.6,98,91,79,29.97,29.82,9,2,9,0.00
2013-8-30,80.4,71.7,64.6,73.3,68.1,63.1,96,89,77,29.98,29.82,9,1,9,0.00
2013-8-31,84.0,75.3,68.9,76.1,71.4,67.4,97,88,74,29.84,29.74,7,1,8,0.00
2013-9-1,85.7,75.6,69.1,76.9,71.7,67.7,97,88,66,29.80,29.71,8,0,9,0.54
2013-9-2,81.3,73.5,69.6,74.6,71.1,68.4,98,93,75,29.74,29.65,8,0,8,0.01
2013-9-3,77.1,70.7,62.6,69.7,63.7,56.5,97,80,55,29.86,29.66,13,1,13,0.01
2013-9-4,76.6,67.0,57.6,60.9,58.1,55.1,92,74,55,29.99,29.86,12,1,12,0.00
2013-9-5,73.7,66.0,56.6,63.8,55.3,47.0,84,70,44,30.10,29.91,15,2,15,0.00
2013-9-6,67.0,57.9,47.8,49.2,45.0,40.9,86,64,43,30.22,30.10,10,2,12,0.00
2013-9-7,75.8,63.6,52.6,57.9,50.5,42.2,87,64,42,30.10,29.87,10,1,10,0.00
2013-9-8,78.4,67.8,56.4,66.6,58.6,46.8,88,73,55,30.03,29.81,14,2,14,0.00
2013-9-9,72.8,62.3,50.4,61.7,53.8,44.4,88,74,59,30.18,30.03,9,2,10,0.00
2013-9-10,84.5,74.2,65.2,75.6,69.5,61.6,95,86,71,30.12,30.02,11,1,11,0.00
2013-9-11,90.7,80.1,72.2,79.0,73.6,70.1,96,81,63,30.08,29.93,9,1,9,0.00
2013-9-12,84.6,74.4,66.5,75.6,70.3,65.1,97,88,67,29.94,29.65,16,1,19,0.34
2013-9-13,71.6,64.6,54.2,65.8,58.8,48.3,97,82,60,29.84,29.60,16,2,16,0.02
2013-9-14,60.1,53.7,45.1,49.3,46.7,42.5,91,77,65,30.11,29.84,14,2,15,0.00
2013-9-15,69.8,57.0,44.8,54.7,48.7,41.8,92,75,51,30.19,30.05,9,1,10,0.00
2013-9-16,67.3,60.0,53.2,59.2,54.4,47.6,94,82,61,30.19,29.99,12,1,12,0.05
2013-9-17,61.6,52.0,41.4,47.6,42.4,39.2,94,71,46,30.38,30.19,14,2,15,0.00
2013-9-18,68.4,55.6,42.7,49.1,44.8,40.4,93,69,42,30.31,30.15,7,0,8,0.00
2013-9-19,73.1,61.2,50.6,56.4,51.5,46.0,91,72,50,30.16,30.03,10,0,10,0.00
2013-9-20,76.3,64.4,54.6,62.3,57.0,52.0,95,78,54,30.04,29.92,8,0,9,0.00
2013-9-21,75.5,64.4,53.9,64.6,58.6,52.5,97,83,53,29.95,29.63,10,1,11,0.67
2013-9-22,65.1,58.7,51.6,59.5,51.0,42.3,97,77,52,29.88,29.62,16,2,16,0.22
2013-9-23,61.8,52.9,43.8,47.8,43.4,39.9,87,71,57,30.01,29.88,14,2,14,0.00
2013-9-24,69.7,54.5,40.5,51.9,44.9,37.9,92,72,46,30.03,29.87,11,2,12,0.00
2013-9-25,68.9,57.4,46.8,51.6,46.8,41.8,85,69,50,29.93,29.84,9,1,11,0.00
2013-9-26,70.2,59.6,50.6,58.2,53.0,47.3,92,80,59,30.05,29.89,8,2,10,0.00
2013-9-27,67.4,58.7,50.8,56.2,52.8,48.6,95,82,59,30.22,30.05,9,1,9,0.00
2013-9-28,69.8,60.2,53.0,56.0,52.0,47.9,93,76,51,30.28,30.18,10,1,11,0.00
2013-9-29,67.5,59.2,51.3,57.7,52.5,48.5,91,79,63,30.19,30.03,7,1,10,0.00
2013-9-30,70.5,59.8,49.6,56.0,51.7,48.2,96,76,52,30.04,29.94,7,0,8,0.00
2013-10-1,76.5,65.4,55.6,63.1,56.6,51.5,88,74,54,29.99,29.88,11,1,15,0.00
2013-10-2,80.0,69.7,60.9,64.2,60.2,55.6,84,73,55,29.99,29.90,13,2,13,0.00
2013-10-3,79.0,69.4,59.8,64.4,60.6,56.5,90,75,53,30.07,29.98,7,0,10,0.00
2013-10-4,82.5,72.1,63.3,67.9,64.6,61.1,95,78,58,30.02,29.93,9,1,9,0.00
2013-10-5,83.0,71.9,63.5,68.7,65.7,61.2,95,82,58,30.03,29.95,7,1,7,0.00
2013-10-6,74.1,66.3,62.9,69.2,64.7,61.9,98,95,83,30.01,29.93,8,2,9,0.02
2013-10-7,73.7,63.4,54.1,70.2,61.4,46.4,97,93,75,29.96,29.69,18,3,18,0.76
2013-10-8,62.8,54.8,46.7,49.2,46.1,43.5,90,73,54,30.27,29.96,15,2,15,0.00
2013-10-9,57.7,52.5,47.3,49.3,45.6,40.8,82,77,71,30.33,30.21,13,4,17,0.00
2013-10-10,57.7,53.0,49.4,54.8,50.7,46.5,96,92,82,30.21,29.98,15,6,17,0.26
2013-10-11,62.0,58.5,54.1,59.7,56.6,52.8,97,94,88,30.02,29.93,16,6,19,1.05
2013-10-12,68.3,61.7,55.4,58.1,52.1,42.8,89,71,50,30.18,30.00,18,4,19,0.00
2013-10-13,64.0,57.5,51.2,54.4,51.0,48.6,92,79,61,30.31,30.17,14,3,18,0.00
2013-10-14,66.3,55.0,47.6,52.2,49.0,45.7,95,81,53,30.31,30.19,7,1,8,0.00
2013-10-15,69.2,57.0,47.5,57.1,49.1,41.0,95,77,48,30.21,30.06,8,1,8,0.01
2013-10-16,63.6,56.9,49.3,58.7,54.4,46.7,97,92,83,30.06,29.88,4,0,4,0.00
2013-10-17,70.7,63.0,58.4,63.0,60.2,56.6,97,91,74,29.88,29.65,14,1,14,0.07
2013-10-18,62.6,55.9,50.4,60.2,45.7,41.0,92,69,55,29.95,29.67,15,3,21,0.00
2013-10-19,60.4,53.4,46.4,52.9,45.7,40.5,93,76,56,29.95,29.72,8,0,10,0.07
2013-10-20,58.6,50.5,43.4,50.4,39.7,36.6,94,68,46,30.03,29.75,15,2,15,0.01
2013-10-21,64.0,53.5,44.2,46.2,40.3,35.8,84,62,42,30.11,29.92,11,1,11,0.00
2013-10-22,59.4,51.5,44.3,50.9,44.9,32.4,95,79,52,29.93,29.74,10,1,10,0.01
2013-10-23,52.4,44.7,39.6,41.2,35.1,31.7,84,69,57,29.78,29.59,10,1,11,0.00
2013-10-24,48.2,40.9,35.6,35.4,31.5,27.8,88,70,47,30.01,29.75,16,2,18,0.00
2013-10-25,49.9,41.3,34.1,35.4,31.7,27.8,83,69,51,30.21,30.01,14,2,16,0.00
2013-10-26,52.5,42.7,33.5,35.3,31.2,28.6,83,65,43,30.21,29.87,20,2,20,0.00
2013-10-27,53.7,46.5,40.7,36.5,32.7,30.3,72,59,46,30.10,29.85,18,2,18,0.00
2013-10-28,57.9,46.6,35.4,38.2,33.3,28.4,77,60,45,30.26,30.09,9,1,11,0.00
2013-10-29,56.8,46.8,39.5,41.5,37.3,32.4,87,70,52,30.36,30.26,8,2,10,0.00
2013-10-30,57.6,49.0,40.2,51.8,45.5,36.9,93,88,79,30.31,30.14,8,0,8,0.00
2013-10-31,64.1,57.0,49.6,61.1,54.6,47.8,97,92,80,30.18,29.74,12,1,12,0.10
2013-11-1,67.3,61.8,55.1,62.8,57.5,53.1,95,86,66,29.74,29.50,25,2,25,0.40
2013-11-2,64.3,56.0,47.4,54.1,44.6,39.0,95,66,52,29.76,29.58,11,1,12,0.00
2013-11-3,47.6,42.3,30.7,41.3,32.4,19.6,85,69,46,30.42,29.75,17,4,17,0.00
2013-11-4,43.8,34.5,26.2,26.4,20.8,16.8,75,58,35,30.61,30.41,12,2,14,0.00
2013-11-5,55.1,44.6,33.7,42.6,36.2,24.6,88,73,60,30.60,30.43,9,1,9,0.00
2013-11-6,62.7,52.7,45.2,50.5,46.7,41.8,90,81,62,30.44,30.02,11,1,11,0.00
2013-11-7,57.7,50.5,39.3,55.1,47.6,34.6,95,90,78,30.02,29.75,16,1,16,0.14
2013-11-8,46.1,39.7,34.4,34.8,29.2,25.6,81,66,52,30.22,29.93,23,3,23,0.00
2013-11-9,48.3,39.9,32.7,34.5,28.8,25.4,80,65,45,30.27,29.95,8,1,9,0.00
2013-11-10,55.4,45.8,38.5,37.8,31.5,27.9,81,58,40,30.07,29.84,24,4,24,0.00
2013-11-11,51.2,44.7,35.4,36.2,31.4,26.6,72,60,47,30.19,29.93,16,2,19,0.00
2013-11-12,47.8,34.4,25.3,36.7,23.1,14.8,83,63,48,30.29,29.91,23,4,23,0.00
2013-11-13,36.6,29.6,22.4,20.2,16.0,11.7,69,57,44,30.37,30.27,19,2,23,0.00
2013-11-14,50.6,38.3,26.4,27.7,19.4,14.0,73,50,23,30.27,30.17,16,2,17,0.00
2013-11-15,54.4,45.4,36.8,32.6,28.3,21.5,72,52,35,30.22,30.13,6,0,10,0.00
2013-11-16,56.7,47.7,40.8,46.2,42.0,29.5,94,81,53,30.29,30.20,7,0,7,0.07
2013-11-17,62.7,54.7,47.1,57.2,51.8,45.3,100,90,78,30.21,29.71,11,2,11,0.01
2013-11-18,61.5,56.2,45.8,59.6,40.1,26.4,96,58,32,29.79,29.58,18,4,20,0.39
2013-11-19,45.7,39.7,30.5,28.6,25.2,20.9,68,56,47,30.32,29.79,22,5,22,0.00
2013-11-20,43.3,34.2,28.7,23.0,17.0,7.8,72,52,28,30.56,30.31,16,3,16,0.00
2013-11-21,48.7,40.1,28.0,40.0,29.4,13.7,79,66,46,30.56,30.35,8,1,10,0.00
2013-11-22,53.4,49.0,46.1,48.3,45.5,40.3,95,88,80,30.35,29.91,11,1,11,0.05
2013-11-23,50.0,38.1,25.8,46.9,26.3,9.0,92,63,47,30.04,29.91,23,6,24,0.00
2013-11-24,26.0,22.3,18.8,10.1,3.6,0.7,54,44,36,30.39,30.02,24,7,27,0.00
2013-11-25,31.9,24.7,17.5,17.3,12.4,6.6,76,60,45,30.48,30.30,11,2,11,0.00
2013-11-26,43.1,32.4,28.7,42.0,26.1,17.3,96,78,58,30.31,29.63,12,2,12,0.70
2013-11-27,59.4,39.6,28.4,58.8,36.8,19.9,98,90,66,29.79,29.37,22,6,23,0.98
2013-11-28,32.4,28.0,25.2,20.1,16.7,14.1,71,62,50,30.44,29.79,21,5,24,0.00
2013-11-29,35.4,28.3,23.4,23.1,18.7,15.8,78,67,55,30.69,30.43,10,1,13,0.00
2013-11-30,34.5,27.8,19.8,26.5,20.1,12.2,83,73,67,30.69,30.34,11,2,11,0.00
2013-12-1,44.6,36.0,29.0,31.3,28.4,25.1,88,74,58,30.34,29.98,6,0,7,0.00
2013-12-2,48.7,39.9,34.8,36.2,31.7,28.2,81,73,61,29.99,29.84,4,0,5,0.00
2013-12-3,50.0,42.3,36.6,39.9,35.0,31.4,91,76,55,29.97,29.84,8,1,8,0.00
2013-12-4,48.7,43.5,36.4,43.3,37.9,32.6,91,81,72,30.07,29.96,6,1,7,0.00
2013-12-5,56.4,50.6,45.5,55.8,49.6,43.1,100,96,91,30.06,29.88,8,1,8,0.00
2013-12-6,59.8,44.9,33.7,59.2,43.9,32.4,98,96,94,30.12,29.83,15,4,15,1.20
2013-12-7,35.9,32.0,27.0,32.5,28.0,20.8,95,85,72,30.48,30.04,16,3,16,0.08
2013-12-8,27.0,24.7,22.6,25.3,20.2,16.3,94,83,71,30.55,30.30,10,2,11,0.00
2013-12-9,33.3,31.4,26.8,32.3,30.3,25.3,97,96,94,30.29,29.96,11,2,12,0.30
2013-12-10,31.0,28.4,21.0,30.2,26.2,16.3,97,92,77,30.13,29.88,12,2,13,0.01
2013-12-11,28.8,23.8,17.1,18.2,15.8,12.6,85,71,61,30.33,30.13,12,1,14,0.06
2013-12-12,23.8,20.2,16.3,19.1,11.0,5.5,90,68,49,30.34,30.14,13,2,14,0.00
2013-12-13,32.4,25.1,16.4,18.3,13.0,5.3,67,60,50,30.30,30.11,17,2,18,0.00
2013-12-14,29.7,25.2,21.4,27.0,20.5,17.3,95,83,61,30.39,29.68,19,4,19,0.00
2013-12-15,35.7,29.8,24.4,32.7,25.9,20.4,95,86,67,29.83,29.52,20,3,22,0.23
2013-12-16,28.4,22.5,17.3,21.6,10.9,7.6,80,61,49,30.19,29.82,17,4,20,0.00
2013-12-17,24.6,20.9,17.4,22.6,17.3,10.3,100,87,63,30.17,29.91,7,2,9,0.00
2013-12-18,32.9,25.9,17.0,22.3,19.1,14.8,92,76,61,30.17,29.91,17,3,26,0.03
2013-12-19,43.1,34.0,22.9,29.9,24.9,18.4,85,70,56,30.17,30.01,10,1,10,0.26
2013-12-20,50.0,44.1,38.7,40.7,32.3,29.4,78,63,51,30.07,29.93,10,1,11,0.00
2013-12-21,60.9,52.3,45.2,55.8,47.3,39.0,91,83,72,29.97,29.85,11,1,11,0.00
2013-12-22,65.5,61.2,57.6,61.9,58.1,55.0,94,90,85,29.91,29.75,17,2,20,0.05
2013-12-23,58.0,51.6,37.3,56.7,49.3,29.7,97,92,73,30.12,29.86,17,3,17,0.78
2013-12-24,37.1,30.6,22.4,29.9,21.2,12.8,80,68,61,30.35,30.08,20,6,20,0.00
2013-12-25,24.6,21.1,15.0,15.6,10.6,6.7,71,63,55,30.50,30.35,15,3,15,0.00
2013-12-26,33.7,27.0,21.0,27.8,21.3,14.8,90,79,66,30.38,30.15,13,1,14,0.01
2013-12-27,39.2,31.6,24.3,24.5,20.8,17.6,76,64,48,30.34,30.25,13,2,15,0.00
2013-12-28,54.0,41.4,31.1,30.1,25.6,20.4,66,54,38,30.26,30.05,14,2,17,0.00
2013-12-29,45.5,40.3,37.9,39.0,33.8,26.7,96,79,48,30.05,29.41,16,2,18,0.89
2013-12-30,40.9,34.2,21.7,37.4,28.0,13.7,94,78,65,30.13,29.70,15,4,18,0.00
2013-12-31,31.0,23.8,17.8,25.1,15.7,11.4,81,71,57,30.28,30.03,21,2,21,0.00
2014-1-1,32.6,26.1,20.0,23.6,17.5,11.1,78,70,63,30.38,30.16,10,1,10,0.00
2014-1-2,28.0,23.9,13.2,22.8,20.2,11.0,100,86,74,30.16,29.61,17,5,17,0.00